Terminal Aerodrome Forecast
Issued by NWS Columbia, SC

Home | Current Version | Previous Version | Text Only | Print | Product List | Glossary On
Versions: 1 2 3 4 5 6 7 8 9 10 11 12 13 14 15 16 17 18 19 20 21 22 23 24 25 26 27 28 29 30 31 32 33 34 35 36 37 38 39 40 41 42 43 44
858
FTUS42 KCAE 141434 AAA
TAFAGS
TAF AMD
KAGS 141434Z 1415/1512 07010KT P6SM BKN080
     FM142000 08006KT P6SM OVC060
     FM150600 07005KT P6SM OVC015=

USA.gov is the U.S. government's official web portal to all federal, state and local government web resources and services.